Tracking 35030 objects as of 11-Aug-2026
HD Live streaming from Space Station
objects crossing your sky now

RESURS F-1 DEB


RESURS F-1 DEB is no longer on orbit


NORAD ID: 20080
Int'l Code: 1989-038J
Launch date: May 25, 1989
Source: Commonwealth of Independent States (former USSR) (CIS)
Launch site: PLESETSK MISSILE AND SPACE COMPLEX (PKMTR)
Decay date: 1989-06-19

Note: This is SATELLITE DEBRIS
Your satellite tracking list
Your tracking list is empty




NASA's NSSDC Master Catalog

Two Line Element Set (TLE):
1 20080U 89038  J 89169.10462266  .06025785 -23000-5 +41923-2 0  9993
2 20080 082.2975 014.2141 0011941 234.0645 125.9190 16.16222882003815
Source of the keplerian elements: AFSPC